OBJECT U

基本信息
目录编号:
62395
目录名称:
OBJECT U
国际标识:
2024-247U
轨道中心:
EARTH
物体状态:
在轨
发射日期:
2024-12-21 UTC
国别:
(TBD)
轨道信息
数据来源: 国际轨道数据
星历时间: 2026-09-05T10:26:01+0800
半长轴: 6785.428km
偏心率: 0.0003346
轨道倾角: 44.991°
近地点辐角: 119.325°
升交点赤经: 164.412°
平近点角: 240.798°
近地点: 405.02km
远地点: 409.562km
周期: 92.710分钟
每日圈数: 15.532343
详细信息
发射场:
AFWTR
轨道高度:
LEO
数据来源:
AOE Integration Group
参考系:
TEME
时间系统:
UTC
历元类型:
SGP4
2D轨道图
3D轨道图
轨道高度分析图
轨道倾角分析图
轨道综合分析图
查看轨道综合分析图